Regional Weather Roundup
Issued by NWS

Home | Current Version | Previous Version | Graphics & Text | Print | Product List | Glossary On
Versions: 1 2 3 4 5 6 7 8 9 10 11 12 13 14 15 16 17 18 19 20 21 22 23 24 25 26 27 28 29 30 31 32 33 34 35 36 37 38 39 40 41 42 43 44 45 46 47 48 49 50
000
ASUS45 KCYS 221610
RWRWY

WYOMING REGIONAL WEATHER ROUNDUP
NATIONAL WEATHER SERVICE CHEYENNE WY
1000 AM MDT TUE JUL 22 2014

NOTE:  "FAIR" INDICATES FEW OR NO CLOUDS BELOW 12,000 FEET
WITH NO SIGNIFICANT WEATHER AND/OR OBSTRUCTIONS TO VISIBILITY.

WYZ001-221700-
YELLOWSTONE NATIONAL PARK

CITY           SKY/WX    TMP DP  RH WIND       PRES   REMARKS
LK YELLOWSTONE   N/A     61  45  55 E6        30.49S
W YELLOWSTONE  NOT AVBL

$$
WYZ002>013-054>058-071-098>099-221700-
NORTHERN WYOMING

CITY           SKY/WX    TMP DP  RH WIND       PRES   REMARKS
JACKSON        SUNNY     64  46  52 S5        30.40F
CODY           SUNNY     77  43  29 S8        30.24F
GREYBULL       SUNNY     78  51  38 SE5       30.20S
WORLAND        SUNNY     82  46  28 VRB3      30.21S
SHERIDAN       PTSUNNY   68  57  68 NW7       30.20F
BUFFALO        MOSUNNY   79  50  36 S9        30.27F
GILLETTE       MOSUNNY   80  55  42 VRB5      30.26R
HULETT         FAIR      73  63  68 MISG      30.28
NEWCASTLE      FAIR      77  54  44 MISG      30.28

$$
WYZ014>020-022>026-101>103-221700-
CENTRAL WYOMING

CITY           SKY/WX    TMP DP  RH WIND       PRES   REMARKS
BIG PINEY      SUNNY     68  39  34 VRB5      30.45S
PINEDALE       SUNNY     68  37  32 CALM      30.45S
DUBOIS         FAIR      66  36  32 CALM      30.43F
LANDER         SUNNY     74  41  30 CALM      30.31F
RIVERTON       SUNNY     71  47  42 S5        30.32S
CASPER         SUNNY     75  50  41 VRB3      30.31S
DOUGLAS        SUNNY     80  54  40 SE15G24   30.31S

$$
WYZ021-027>030-104>119-221700-
SOUTHERN WYOMING

CITY           SKY/WX    TMP DP  RH WIND       PRES   REMARKS
EVANSTON       MOSUNNY   69  38  32 CALM      30.43S
KEMMERER       SUNNY     68  41  37 CALM      30.46R
FORT BRIDGER   FAIR      69  39  33 NE3       30.46S
ROCK SPRINGS   SUNNY     72  34  24 W5        30.41S
DIXON          FAIR      75  34  22 CALM      30.43S
RAWLINS        SUNNY     74  37  26 E8        30.42R
SARATOGA       FAIR      72  37  28 E7        30.44S
LARAMIE        SUNNY     69  44  40 SE5       30.45S
CHEYENNE       SUNNY     73  56  54 NW12G21   30.38S
TORRINGTON     SUNNY     77  57  50 VRB3      30.26R
PINE BLUFFS    FAIR      73  57  56 CALM      30.33R

$$



USA.gov is the U.S. government's official web portal to all federal, state and local government web resources and services.